Tracking 35280 objects as of 7-Sep-2026
HD Live streaming from Space Station
objects crossing your sky now

YAOGAN-40 02B

Track YAOGAN-40 02B now!
10-day predictions
YAOGAN-40 02B is classified as:


NORAD ID: 63919
Int'l Code: 2025-096B
Launch date: May 11, 2025
Source: People's Republic of China (PRC)
Launch site: Taiyaun Space Center, China (TSC)
Your satellite tracking list
Your tracking list is empty




NASA's NSSDC Master Catalog

Two Line Element Set (TLE):
1 63919U 25096B   26249.82073726  .00000066  00000-0  25411-4 0  9997
2 63919  85.9986 151.3818 0001785  77.4237 282.7145 14.12459324 68090
Source of the keplerian elements: AFSPC